Temp
83 86 80 80 80 80 80 80 80 80 80 79 80 80 79 79 79 80 80 79 79 80 80 80 80 80 80 80 80 79 79 80 80 80 80 79 79 79 79 79 79 85 78
87 85 79 80 80 80 80 79 79 79 79 79 80 79 79 79 79 79 79 79 80 80 80 80 80 80 80 80 80 79 79 79 80 80 80 79 79 79 79 79 79 84 78
86 85 83 79 80 80 79 79 79 79 79 79 79 79 79 79 79 79 79 79 80 80 80 80 80 80 80 80 80 79 79 79 79 80 80 90 88 79 80 80 80 78 78
86 85 85 79 79 79 79 78 78 78 79 79 79 79 79 79 79 79 79 80 80 80 80 80 80 80 80 80 80 80 80 80 80 80 89 89 89 82 80 80 80 79 78
84 86 83 79 79 79 79 78 78 78 78 78 79 79 79 79 78 78 79 80 80 81 81 80 80 80 80 80 79 79 79 79 80 83 89 89 88 87 81 80 80 79 79
85 86 80 78 78 78 79 78 78 78 78 78 79 79 79 79 78 78 79 79 80 80 80 80 79 79 79 79 79 79 79 79 79 90 88 87 87 80 79 80 80 80 79
85 87 85 78 78 79 79 78 78 78 78 78 79 79 78 78 78 78 78 79 80 80 80 79 79 79 78 78 78 78 78 79 87 90 88 87 89 77 79 79 80 79 79
85 85 83 79 78 78 79 78 78 78 78 78 78 78 78 78 78 78 78 78 79 79 79 79 78 78 78 78 78 78 78 78 87 88 88 89 83 77 79 79 79 79 79
84 85 83 85 81 78 78 78 78 77 78 77 77 77 77 78 78 78 78 78 78 78 78 78 78 78 77 77 77 77 77 78 87 89 88 89 81 77 79 79 79 79 79
85 83 84 84 87 85 84 78 78 77 77 77 77 77 77 77 77 77 76 77 78 78 78 78 78 77 77 77 77 77 77 78 91 90 90 90 78 78 79 79 79 79 79
84 82 84 86 85 85 85 82 78 78 78 77 78 77 78 86 84 83 79 77 78 78 78 78 77 77 77 77 77 76 77 89 89 90 91 82 77 79 80 80 79 79 79
82 80 82 83 83 84 85 83 84 85 86 85 85 83 85 83 84 85 81 77 77 78 77 77 77 77 79 88 89 82 89 89 89 89 91 80 78 79 80 80 79 79 79
83 81 81 81 82 83 84 84 84 85 84 83 82 82 82 83 84 86 86 87 85 81 86 85 85 87 85 85 87 87 88 89 90 91 89 78 77 78 79 79 79 78 75
79 80 81 82 80 80 84 83 84 84 84 84 83 81 81 82 81 82 85 85 83 86 83 84 85 84 84 84 85 85 87 87 90 90 89 78 76 77 78 78 77 76 75
78 80 81 82 81 80 79 82 83 82 83 84 83 82 83 82 81 82 82 83 83 83 84 84 84 85 85 85 86 85 86 86 87 89 89 80 76 76 77 77 78 77 76
79 78 81 82 81 80 80 80 80 82 83 83 83 83 81 82 80 82 81 81 82 83 84 85 85 83 84 84 84 85 84 85 85 85 89 87 75 74 75 76 77 77 78
78 78 79 79 79 77 79 80 81 83 84 83 83 81 81 80 79 78 80 80 80 82 83 84 84 84 84 84 83 84 84 84 85 85 86 86 85 77 75 75 76 77 77
76 75 76 77 76 75 79 80 82 82 83 82 83 83 81 81 80 78 80 80 81 82 83 83 82 81 81 82 80 81 83 84 85 84 85 83 84 83 80 75 74 74 75
75 74 73 76 76 78 78 80 80 79 81 83 84 84 82 81 81 77 76 78 77 77 80 79 78 78 77 77 80 81 82 83 82 84 82 81 80 81 81 77 74 74 73
75 75 76 76 76 78 80 80 81 82 83 83 82 81 78 78 78 74 75 76 74 76 76 74 76 79 78 77 77 76 78 82 82 82 81 82 80 79 78 77 77 78 73
75 74 75 74 75 77 78 79 79 81 80 77 74 75 74 73 73 72 72 71 71 70 71 72 74 73 75 76 76 78 81 81 78 81 82 79 76 78 76 76 74 76 77
74 75 74 75 74 76 78 78 80 75 72 71 73 74 74 72 71 70 70 69 68 69 70 71 72 74 76 75 73 74 73 77 79 79 79 75 72 75 74 73 71 72 72
75 74 74 74 74 76 75 77 77 78 73 71 70 69 70 71 69 68 68 67 67 68 68 70 71 71 69 74 72 70 69 67 69 79 75 75 69 71 71 71 70 70 69
72 72 74 76 74 75 76 76 71 71 71 69 72 71 67 66 65 66 65 66 65 66 66 68 68 68 71 67 72 70 70 67 65 65 73 71 69 69 68 70 70 69 68
74 76 75 74 74 75 76 77 72 70 68 70 67 64 63 62 64 64 64 65 64 67 64 65 65 64 67 66 65 65 65 68 64 61 61 64 67 69 69 69 69 69 67
77 76 75 75 74 75 77 76 71 73 71 65 64 61 58 58 61 61 62 62 62 62 62 62 62 62 63 64 64 63 62 61 60 60 59 60 59 65 66 68 68 68 67
MSLP
1008.89 1009.17 1010.23 1010.58 1011.00 1011.27 1011.36 1011.57 1011.78 1012.10 1012.49 1012.88 1013.24 1013.53 1013.61 1013.86 1014.10 1014.41 1014.61 1014.80 1014.96 1015.16 1015.34 1015.43 1015.52 1015.63 1015.69 1015.83 1015.96 1016.05 1016.06 1016.06 1016.09 1016.17 1016.21 1016.14 1016.06 1016.00 1015.90 1015.75 1015.67 1015.18 1015.58
1008.10 1009.14 1010.07 1010.60 1010.97 1011.44 1011.72 1011.81 1012.08 1012.36 1012.71 1013.10 1013.40 1013.56 1013.73 1014.02 1014.31 1014.65 1014.79 1014.95 1015.18 1015.44 1015.62 1015.68 1015.72 1015.72 1015.79 1015.88 1016.01 1016.10 1016.15 1016.22 1016.16 1016.12 1016.03 1015.94 1015.83 1015.77 1015.86 1015.82 1015.72 1015.23 1015.57
1008.48 1009.33 1010.02 1010.72 1010.99 1011.58 1011.87 1012.02 1012.42 1012.69 1012.97 1013.25 1013.60 1013.74 1013.92 1014.17 1014.44 1014.66 1014.93 1015.23 1015.39 1015.46 1015.59 1015.74 1015.84 1015.90 1015.95 1016.00 1016.03 1016.04 1016.10 1016.12 1016.11 1016.02 1015.84 1015.21 1015.16 1015.62 1015.60 1015.56 1015.63 1015.68 1015.61
1008.71 1009.45 1009.92 1010.72 1011.18 1011.61 1011.87 1012.18 1012.61 1013.02 1013.30 1013.61 1013.75 1013.98 1014.27 1014.50 1014.73 1014.92 1015.16 1015.44 1015.60 1015.65 1015.67 1015.77 1015.86 1015.95 1015.98 1016.01 1015.99 1015.98 1015.96 1015.96 1015.89 1015.74 1015.12 1015.04 1014.88 1015.05 1015.28 1015.34 1015.40 1015.47 1015.55
1009.05 1009.42 1010.10 1010.67 1011.33 1011.69 1011.93 1012.35 1012.78 1013.23 1013.57 1013.86 1014.03 1014.29 1014.60 1014.78 1015.08 1015.30 1015.47 1015.62 1015.79 1015.89 1015.96 1016.00 1016.05 1016.07 1016.08 1016.12 1016.04 1015.96 1015.87 1015.78 1015.69 1015.33 1014.88 1014.76 1014.69 1014.41 1014.81 1014.93 1015.05 1015.19 1015.31
1009.37 1009.55 1010.14 1010.85 1011.43 1011.82 1012.23 1012.52 1012.97 1013.38 1013.67 1014.01 1014.28 1014.54 1014.83 1014.97 1015.23 1015.46 1015.53 1015.59 1015.70 1015.82 1015.89 1016.02 1016.09 1016.09 1016.11 1016.09 1016.06 1015.96 1015.95 1015.84 1015.63 1014.86 1014.88 1014.67 1014.59 1014.56 1014.55 1014.57 1014.64 1014.51 1014.63
1009.34 1009.75 1009.92 1010.78 1011.41 1011.91 1012.36 1012.64 1013.03 1013.50 1013.80 1014.09 1014.40 1014.67 1014.96 1015.17 1015.26 1015.46 1015.52 1015.63 1015.75 1015.85 1015.91 1015.95 1015.99 1016.12 1016.18 1016.15 1016.09 1016.04 1016.02 1015.99 1015.51 1014.91 1014.95 1014.68 1014.25 1014.52 1014.40 1014.28 1014.35 1014.45 1014.29
1009.41 1010.01 1010.39 1010.81 1011.48 1011.93 1012.36 1012.66 1013.06 1013.55 1013.97 1014.26 1014.53 1014.72 1014.97 1015.19 1015.32 1015.42 1015.51 1015.66 1015.77 1015.83 1015.91 1016.06 1016.17 1016.15 1016.15 1016.10 1016.07 1016.02 1015.99 1015.97 1015.33 1015.04 1014.83 1014.49 1014.33 1014.41 1014.14 1013.91 1013.83 1013.70 1013.74
1009.56 1010.22 1010.60 1010.76 1011.57 1012.06 1012.51 1012.77 1013.16 1013.67 1014.05 1014.36 1014.61 1014.81 1014.99 1015.19 1015.45 1015.60 1015.66 1015.81 1016.00 1016.04 1015.98 1015.98 1016.03 1016.09 1016.04 1016.03 1015.92 1015.88 1015.80 1015.57 1015.08 1014.67 1014.74 1014.37 1014.25 1014.32 1014.00 1013.58 1013.32 1013.13 1013.00
1009.44 1010.36 1010.60 1010.93 1011.37 1011.94 1012.54 1013.03 1013.28 1013.63 1014.14 1014.36 1014.69 1014.91 1015.15 1015.30 1015.54 1015.79 1015.87 1015.89 1015.98 1016.00 1016.01 1016.01 1016.11 1016.13 1016.08 1016.04 1015.95 1015.64 1015.33 1015.13 1014.39 1014.27 1014.11 1013.90 1014.08 1013.93 1013.69 1013.39 1013.10 1012.81 1012.56
1009.46 1010.15 1010.65 1010.99 1011.53 1011.90 1012.38 1013.02 1013.61 1013.94 1014.34 1014.69 1014.79 1015.12 1015.30 1015.17 1015.45 1015.64 1015.84 1015.99 1015.95 1015.93 1015.95 1015.99 1015.94 1015.91 1015.96 1015.64 1015.52 1015.49 1015.36 1014.44 1014.23 1013.80 1013.49 1013.51 1013.74 1013.58 1013.31 1013.05 1012.79 1012.51 1012.26
1009.49 1010.02 1010.44 1011.20 1011.72 1012.05 1012.41 1013.05 1013.50 1013.85 1014.23 1014.55 1014.73 1015.10 1015.18 1015.42 1015.56 1015.64 1015.86 1016.07 1016.02 1015.83 1015.79 1015.70 1015.67 1015.71 1015.58 1015.07 1014.85 1014.82 1014.33 1014.09 1013.84 1013.62 1013.16 1013.31 1013.36 1013.08 1012.74 1012.45 1012.11 1011.82 1011.74
1009.29 1009.72 1010.38 1011.27 1011.71 1012.03 1012.36 1012.96 1013.42 1013.73 1014.19 1014.67 1015.04 1015.25 1015.46 1015.51 1015.57 1015.57 1015.67 1015.68 1015.70 1015.80 1015.48 1015.31 1015.26 1015.06 1014.91 1014.84 1014.41 1014.18 1013.96 1013.74 1013.42 1013.08 1012.68 1013.09 1013.07 1012.80 1012.49 1012.19 1011.92 1011.54 1011.32
1009.39 1009.70 1010.31 1010.87 1011.56 1011.84 1012.11 1012.62 1013.19 1013.59 1014.03 1014.34 1014.75 1015.20 1015.56 1015.51 1015.53 1015.49 1015.27 1015.46 1015.74 1015.48 1015.33 1015.35 1015.16 1015.01 1014.74 1014.52 1014.38 1014.06 1013.58 1013.35 1012.95 1012.75 1012.49 1012.67 1012.43 1012.37 1012.08 1011.84 1011.70 1011.44 1011.16
1008.85 1009.52 1010.14 1010.60 1011.10 1011.63 1012.08 1012.48 1013.01 1013.69 1014.00 1014.32 1014.79 1015.19 1015.51 1015.60 1015.66 1015.70 1015.70 1015.76 1015.68 1015.56 1015.33 1015.07 1014.77 1014.61 1014.25 1014.06 1013.84 1013.59 1013.30 1012.98 1012.71 1012.38 1012.12 1012.11 1012.30 1012.31 1012.22 1011.91 1011.76 1011.66 1011.25
1008.81 1009.41 1009.87 1010.40 1011.20 1011.60 1011.88 1012.44 1012.99 1013.55 1013.86 1014.30 1014.61 1014.86 1015.32 1015.57 1015.74 1015.77 1015.82 1015.81 1015.69 1015.46 1015.25 1014.92 1014.59 1014.58 1014.31 1014.03 1013.76 1013.31 1013.13 1012.84 1012.61 1012.39 1011.90 1011.74 1012.21 1012.10 1011.92 1011.85 1011.63 1011.43 1011.29
1008.88 1009.45 1010.10 1010.64 1011.39 1011.91 1012.21 1012.51 1012.77 1013.41 1013.84 1014.27 1014.47 1014.86 1015.34 1015.58 1015.68 1015.72 1015.56 1015.68 1015.66 1015.56 1015.31 1014.98 1014.82 1014.39 1014.08 1013.65 1013.37 1013.01 1012.76 1012.55 1012.40 1012.19 1011.85 1011.72 1011.72 1011.86 1011.97 1011.92 1011.67 1011.26 1010.96
1008.95 1009.74 1010.38 1010.97 1011.58 1012.05 1012.30 1012.61 1012.92 1013.57 1014.05 1014.16 1014.30 1014.69 1015.16 1015.50 1015.70 1015.65 1015.47 1015.69 1015.64 1015.53 1015.28 1015.07 1014.73 1014.25 1013.88 1013.47 1013.37 1013.06 1012.67 1012.41 1012.31 1012.28 1012.05 1012.12 1011.93 1011.73 1011.51 1011.72 1011.44 1011.29 1010.82
1009.03 1009.71 1010.38 1010.89 1011.39 1011.75 1012.37 1012.84 1013.39 1013.90 1014.04 1014.41 1014.61 1014.75 1015.26 1015.34 1015.62 1016.07 1016.25 1015.95 1016.04 1015.77 1015.48 1015.23 1014.77 1014.50 1014.10 1013.90 1013.54 1013.23 1012.86 1012.47 1012.38 1012.18 1012.31 1012.19 1012.22 1012.04 1011.67 1011.56 1011.51 1011.22 1011.06
1008.82 1009.45 1010.07 1010.75 1011.29 1011.92 1012.50 1013.31 1013.68 1013.94 1014.45 1014.80 1014.92 1015.31 1015.52 1015.80 1015.61 1016.02 1016.59 1016.63 1016.50 1016.28 1015.93 1016.02 1015.53 1014.99 1013.94 1013.69 1012.99 1012.92 1012.81 1012.21 1012.32 1012.35 1012.15 1012.10 1012.23 1012.05 1011.92 1011.70 1011.34 1010.87 1010.76
1008.89 1009.48 1010.09 1010.70 1011.34 1012.19 1012.83 1013.14 1013.65 1013.91 1014.64 1015.22 1015.61 1015.81 1015.79 1016.07 1016.08 1016.53 1015.85 1017.56 1017.33 1017.28 1016.66 1016.29 1015.99 1015.46 1014.45 1013.80 1013.21 1012.35 1011.91 1011.93 1012.11 1012.17 1012.33 1012.50 1012.57 1012.47 1012.42 1012.16 1012.00 1011.34 1010.79
1008.82 1009.55 1010.38 1010.97 1011.71 1012.41 1012.96 1013.29 1013.62 1014.41 1015.09 1015.46 1015.71 1015.58 1015.37 1015.90 1016.24 1015.29 1016.27 1017.32 1017.13 1016.81 1017.43 1016.67 1016.20 1015.40 1014.71 1014.67 1013.98 1013.05 1012.19 1011.77 1011.89 1012.31 1012.62 1013.08 1013.20 1012.67 1012.55 1012.44 1012.25 1011.79 1011.45
1008.81 1009.45 1010.34 1011.09 1012.11 1012.61 1013.11 1013.43 1013.91 1014.45 1015.19 1015.59 1015.52 1015.71 1015.64 1015.31 1014.59 1014.73 1015.27 1017.13 1017.99 1018.03 1017.67 1016.74 1016.51 1015.93 1015.37 1015.11 1014.94 1014.54 1013.69 1013.41 1013.12 1012.22 1012.86 1012.90 1013.44 1013.20 1012.97 1012.62 1012.42 1012.09 1012.01
1009.02 1010.08 1010.62 1011.09 1012.46 1012.77 1013.16 1013.35 1013.47 1014.02 1014.53 1015.03 1015.02 1015.20 1015.78 1015.39 1015.87 1016.35 1016.08 1017.86 1018.52 1018.34 1017.79 1017.62 1017.48 1016.96 1016.27 1015.75 1015.46 1015.57 1015.59 1015.79 1014.63 1013.45 1013.48 1013.70 1013.77 1013.24 1013.14 1012.85 1012.48 1012.18 1012.18
1009.65 1010.03 1010.71 1011.52 1012.42 1012.73 1012.96 1012.99 1013.23 1013.84 1014.25 1014.89 1015.38 1015.30 1016.55 1015.19 1017.48 1017.11 1017.49 1018.85 1018.76 1018.28 1018.43 1018.50 1018.06 1017.67 1016.73 1016.83 1016.67 1016.51 1016.41 1016.04 1016.33 1015.81 1014.56 1014.28 1013.89 1013.76 1013.60 1013.32 1012.73 1012.37 1012.23
1009.35 1010.07 1010.96 1011.67 1012.18 1012.64 1012.62 1012.94 1013.14 1013.68 1014.58 1015.22 1015.77 1015.56 1015.92 1017.46 1018.51 1018.94 1019.62 1019.69 1019.37 1019.35 1019.11 1018.71 1018.57 1018.30 1018.02 1017.60 1017.40 1017.53 1017.29 1016.98 1016.92 1016.82 1016.00 1015.27 1014.85 1014.07 1014.11 1013.52 1012.96 1012.70 1012.50
Wind_Speed
16 19 17 15 14 15 16 18 19 19 19 18 18 16 16 15 14 14 14 12 11 11 11 11 11 11 11 11 10 8 7 6 5 4 4 3 2 2 4 4 5 5 5
22 20 19 16 16 16 16 18 18 18 18 18 17 16 15 14 14 12 12 12 11 11 10 10 10 11 10 10 9 7 6 5 4 3 2 3 2 2 4 5 5 1 6
21 19 20 17 17 16 17 18 17 17 17 17 15 15 14 13 13 13 11 11 11 11 11 10 9 9 9 9 8 6 5 3 2 1 2 3 3 3 6 6 7 7 8
21 18 19 19 17 17 17 17 16 16 15 14 14 14 13 12 12 12 11 10 11 10 10 10 9 8 8 7 6 4 2 1 1 4 5 5 6 4 9 9 9 9 9
19 18 18 20 18 17 18 17 16 15 14 13 13 13 12 11 10 9 10 9 9 9 8 7 7 6 5 4 2 1 1 3 4 7 5 5 6 4 9 11 10 11 11
17 18 21 19 18 17 18 18 16 15 14 13 13 13 12 11 10 9 9 8 8 7 7 6 5 4 3 1 1 3 5 6 9 6 5 6 7 6 9 12 13 12 10
18 16 20 19 18 18 18 18 17 15 14 14 13 13 12 11 10 9 8 7 7 5 4 3 3 0 2 3 4 5 7 8 9 7 7 7 8 6 8 10 13 13 13
17 16 16 18 16 17 17 17 16 15 14 13 12 12 12 10 9 9 8 6 4 3 1 1 2 3 5 6 6 7 7 8 9 7 8 7 7 10 11 10 12 15 16
16 15 13 15 15 14 14 15 15 14 13 12 11 11 10 10 8 7 6 4 2 1 2 4 4 6 6 7 8 8 9 9 10 6 8 6 5 11 12 12 12 15 17
17 13 13 13 13 13 12 13 14 14 13 12 11 10 9 8 6 5 4 3 3 4 6 6 7 7 8 9 10 9 10 12 8 7 6 5 9 12 13 13 13 14 16
14 14 13 12 11 11 10 11 11 13 12 10 10 8 8 4 5 5 2 2 4 5 7 7 8 8 9 10 9 10 11 5 7 5 5 4 10 11 12 13 13 14 15
17 16 13 12 11 10 8 10 8 9 7 7 6 6 4 4 3 2 1 3 6 7 8 8 8 8 9 6 6 6 5 7 6 7 6 5 9 10 10 9 9 9 11
17 14 15 13 11 10 8 6 5 4 5 5 6 5 4 3 3 3 2 3 4 4 5 5 5 5 6 6 6 6 7 7 6 6 8 7 10 10 9 6 1 9 10
17 17 17 16 13 11 8 7 7 6 6 5 5 6 4 4 4 4 3 3 3 3 5 5 5 6 8 8 8 9 9 8 6 6 7 5 7 7 5 3 5 9 5
17 17 17 16 14 12 10 8 7 6 5 5 5 5 4 4 4 4 3 4 4 4 5 6 6 7 8 8 8 9 10 10 9 6 6 5 7 5 5 5 7 7 8
17 16 16 16 12 11 10 11 7 6 6 5 4 5 7 4 3 4 4 5 5 5 6 6 6 7 7 8 10 10 10 9 8 8 7 7 1 7 8 9 12 12 13
14 14 14 13 12 11 10 9 6 6 5 4 4 6 5 5 5 5 5 5 6 6 8 6 7 6 7 7 9 8 7 8 8 9 8 6 7 6 9 12 14 14 14
14 15 12 11 12 11 8 6 4 3 3 4 4 3 5 6 6 5 5 5 5 6 5 6 6 7 7 7 8 8 7 9 10 10 6 6 7 7 6 10 15 15 15
15 15 15 14 14 13 8 5 4 4 4 2 2 2 4 4 4 5 5 4 5 4 5 6 6 5 6 7 9 9 9 8 8 6 6 7 8 7 7 10 12 12 18
15 14 13 11 11 10 6 4 3 3 2 4 6 7 8 6 4 2 5 7 5 6 6 5 8 7 5 5 8 7 8 6 4 4 6 5 7 9 9 11 10 10 12
13 13 13 13 12 9 6 6 5 4 7 9 8 14 15 11 12 8 8 8 7 8 6 5 6 7 4 7 6 8 3 3 4 8 6 7 10 11 11 11 10 8 9
14 13 12 11 11 9 7 5 5 6 8 7 7 9 9 10 6 8 5 3 6 5 5 4 3 4 3 6 6 5 6 2 1 8 6 7 11 12 12 11 11 11 10
14 14 11 11 10 8 9 8 8 10 6 3 4 5 5 4 3 7 6 2 4 4 3 4 7 7 4 3 7 5 5 5 12 3 8 9 13 11 11 10 11 12 12
10 10 12 13 10 10 10 10 10 6 5 3 3 4 7 12 11 6 9 3 3 2 6 6 6 5 4 6 3 7 6 5 6 7 5 8 13 11 12 10 10 11 12
13 13 12 13 11 11 11 12 9 8 6 7 5 9 7 15 10 10 10 4 4 4 5 5 5 7 8 5 6 6 4 3 5 6 7 10 10 9 10 11 10 10 13
13 14 12 12 10 9 8 10 8 11 8 7 7 8 10 8 6 8 6 5 5 5 5 6 7 9 7 7 6 6 6 5 7 6 7 12 12 10 10 10 10 11 12
Wind_Direction
163 148 151 148 138 132 128 126 127 129 132 136 140 145 139 140 140 140 138 129 122 125 121 116 113 107 104 102 105 105 107 115 124 119 105 90 101 219 200 176 179 197 173
148 149 149 149 140 138 134 128 129 131 134 138 142 144 138 139 137 137 133 128 127 126 120 117 115 113 112 116 116 117 119 128 137 144 149 171 188 4 197 220 220 206 205
146 148 147 148 142 142 137 130 131 132 134 138 141 137 137 136 138 136 133 132 131 130 128 122 120 118 120 121 122 128 134 144 152 205 245 279 299 217 228 236 235 232 226
147 150 148 147 146 146 135 131 130 131 132 134 132 128 131 134 138 137 133 131 132 133 129 129 129 130 129 128 126 127 130 71 343 314 279 321 305 203 245 243 237 238 238
152 150 146 143 147 145 137 133 130 130 129 129 127 126 129 128 129 127 124 127 131 131 127 125 127 133 135 131 129 101 331 325 322 284 310 316 312 290 253 241 234 236 243
153 152 140 141 146 142 140 135 133 132 129 128 128 130 132 129 122 120 124 131 139 137 132 135 143 150 152 134 323 317 320 323 306 305 312 305 288 341 283 259 243 239 234
154 154 144 141 143 143 143 140 137 135 132 130 130 131 129 127 127 126 132 137 143 142 146 156 163 171 321 314 316 319 323 326 311 315 305 293 294 300 295 271 251 245 237
153 154 147 136 142 145 147 143 139 137 133 130 130 129 130 132 135 141 141 143 150 148 182 309 329 306 306 303 306 314 315 317 295 298 292 291 292 279 281 274 253 243 240
151 153 147 143 145 144 148 144 139 137 134 132 131 131 135 137 142 143 140 143 146 210 257 268 283 294 298 301 303 305 306 301 293 299 292 291 309 290 288 278 266 251 242
151 150 149 147 153 156 155 147 144 141 140 138 138 140 136 137 142 147 144 157 216 252 268 282 291 293 296 299 298 293 297 292 287 297 286 286 287 291 289 277 271 265 252
151 149 151 151 158 155 153 148 143 147 144 142 145 140 148 154 158 166 106 225 254 269 276 288 291 291 297 275 276 291 296 294 297 285 282 270 278 295 302 295 290 274 267
160 151 150 157 159 155 153 150 157 157 168 173 166 161 167 151 163 231 260 278 274 271 273 274 282 295 277 303 299 265 284 293 291 293 288 306 288 296 300 298 298 300 282
164 150 152 160 159 158 151 153 160 161 163 168 167 172 168 178 190 215 243 248 267 265 283 279 292 289 302 297 294 292 295 297 292 293 296 329 310 310 302 302 33 102 108
164 156 161 162 161 163 162 169 164 171 171 174 178 180 192 208 207 228 238 261 275 287 298 300 303 300 296 292 289 291 290 291 294 299 305 292 277 280 276 180 165 176 168
159 163 173 169 171 170 167 166 167 179 181 171 181 189 215 237 244 256 275 286 295 302 300 292 285 297 299 300 299 296 292 290 291 289 297 278 286 295 280 240 279 264 248
164 167 169 176 174 173 174 174 170 181 177 190 193 197 213 241 258 278 287 284 282 280 291 292 289 303 306 310 306 300 297 298 298 304 304 313 281 287 286 306 311 292 304
166 163 171 172 178 181 187 177 176 185 192 201 205 216 222 225 236 257 269 271 277 289 297 300 299 299 298 299 291 290 299 302 309 310 310 331 321 283 291 312 324 322 315
158 170 168 177 181 181 187 184 180 178 193 208 214 226 226 233 239 244 256 281 312 307 312 307 303 293 290 302 314 308 306 306 306 309 324 329 339 336 331 349 342 344 344
169 165 170 179 178 176 178 177 180 168 207 234 255 290 305 265 284 303 324 326 324 318 300 287 284 303 331 329 325 314 311 307 316 339 346 354 4 357 358 3 4 358 353
172 177 174 168 164 167 154 148 130 122 72 33 28 25 16 360 13 354 341 326 336 311 323 328 331 319 321 338 320 312 299 341 8 62 8 23 32 16 9 359 351 344 354
165 160 163 154 156 149 126 121 117 110 90 76 64 61 53 49 53 28 62 4 9 339 315 328 307 321 332 354 313 332 333 348 122 1 30 39 16 4 352 352 346 339 351
164 161 155 150 149 132 117 103 98 93 83 88 73 54 55 66 52 98 70 9 312 268 291 318 342 311 338 6 336 325 338 2 22 354 24 18 4 345 357 2 0 2 358
165 162 151 137 139 126 112 115 109 103 105 129 111 95 57 66 105 72 106 15 299 317 290 7 358 2 342 360 37 1 332 327 333 17 3 2 352 351 352 358 5 4 2
131 139 139 122 126 128 130 106 102 127 136 165 178 164 114 74 56 70 71 38 334 358 33 30 21 12 356 28 0 18 356 346 324 325 339 357 342 346 356 355 356 5 355
150 141 120 121 125 134 142 136 130 149 146 152 143 96 86 64 46 42 56 63 58 58 59 54 43 38 44 36 29 5 360 359 21 315 318 341 333 348 345 349 347 346 349
133 125 126 125 119 144 138 144 142 143 147 109 92 79 59 60 65 63 70 67 67 61 50 44 47 47 51 54 50 38 33 19 2 358 326 341 328 341 336 343 348 348 347